Regional Weather Roundup
Issued by NWS

Home | Current Version | Previous Version | Text Only | Print | Product List | Glossary On
Versions: 1 2 3 4 5 6 7 8 9 10 11 12 13 14 15 16 17 18 19 20 21 22 23 24 25 26 27
000
ASUS44 KJAN 250520
RWRMS

MISSISSIPPI HOURLY WEATHER ROUNDUP
NATIONAL WEATHER SERVICE JACKSON MS
1200 AM CDT SUN SEP 25 2016

NOTE: "FAIR: INDICATES FEW OR NO CLOUDS BELOW 12,000 FEET WITH NO
SIGNIFICANT WEATHER AND/OR OBSTRUCTIONS TO VISIBILITY.

MSZ001>002-007>008-010>013-018>021-025>028-034>036-250600-
NORTHWEST MISSISSIPPI

CITY           SKY/WX    TMP DP  RH WIND       PRES   REMARKS
BATESVILLE     FAIR      70  68  92 CALM      30.03R
CLARKSDALE     CLOUDY    77  72  83 CALM      30.01S
CLEVELAND      FAIR      76  72  89 NW3       30.00S
GREENWOOD      CLOUDY    76  71  85 CALM      30.01R
GREENVILLE     CLEAR     75  67  76 CALM      30.00S
OXFORD         FAIR      73  64  73 CALM      30.05R
TUNICA         CLEAR     73  66  78 N3        30.02F
WINONA         CLOUDY    72  69  90 CALM      30.01S FOG
$$

MSZ003>006-009-014>017-022>024-029>033-037>039-250600-
NORTHEAST MISSISSIPPI

CITY           SKY/WX    TMP DP  RH WIND       PRES   REMARKS
COLUMBUS AFB   CLEAR     72  67  85 CALM      30.00S
CORINTH        FAIR      68  64  88 CALM      30.04R
GOLDN TRIANGLE CLEAR     73  63  68 CALM      30.01S
STARKVILLE     FAIR      72  68  88 CALM      30.02S
TUPELO         CLEAR     76  64  66 NW5       30.03R
$$

MSZ040-058-250600-
CENTRAL MISSISSIPPI

CITY           SKY/WX    TMP DP  RH WIND       PRES   REMARKS
JACKSON INTL   CLEAR     76  69  79 CALM      30.01S
JACKSON HAWKNS CLEAR     76  69  79 CALM      30.02R
MADISON        FAIR      72  68  88 CALM      30.00F
MERIDIAN KEY   CLOUDY    74  69  85 CALM      30.01S
MERIDIAN NAS   CLEAR     76  67  73 CALM      30.01
VICKSBURG VKS  CLEAR     73  72  94 CALM      29.99F
$$

MSZ059>079-250600-
SOUTH MISSISSIPPI

CITY           SKY/WX    TMP DP  RH WIND       PRES   REMARKS
BROOKHAVEN     FAIR     N/A N/A N/A CALM      30.03S
COLUMBIA       FAIR      72  70  94 E3        30.04S
HATTIESBURG    CLEAR     76  71  85 CALM      30.01S
LAUREL         FAIR      74  74 100 CALM      30.01S
MCCOMB         CLEAR     74  71  91 CALM      30.02S
NATCHEZ        CLEAR     73  70  88 CALM      30.01S
PINE BELT      CLEAR     73  70  88 CALM      30.03R
$$

MSZ080>082-250600-
COASTAL MISSISSIPPI

CITY           SKY/WX    TMP DP  RH WIND       PRES   REMARKS
BILOXI         CLEAR     77  75  92 CALM      30.00S
PASCAGOULA     CLEAR     71  71 100 CALM      30.00S
GULFPORT       CLEAR     77  74  90 CALM      30.00S
$$

LAZ007>009-015>016-023>026-250600-
NORTHEAST LOUISIANA

CITY           SKY/WX    TMP DP  RH WIND       PRES   REMARKS
BASTROP        FAIR      70  70  99 CALM      30.02R
TALLULAH/VBURG CLEAR     70  69  97 CALM      29.99F
$$




USA.gov is the U.S. government's official web portal to all federal, state and local government web resources and services.